CW9259 Weather Reports


Display with metric or nautical units.
time (UTC)temp
F
wind
direction
speed
MPH
gust
MPH
rain 1hr
in
rain 24hr
in
rain mn
in
humidity
%
barometer
mb
20260507114604 65 175 4.0 10.0 0.00 0.43 0.17 63 1010.6
20260507113138 66 95 4.0 10.0 0.00 0.43 0.17 60 1010.6
20260507111604 66 132 1.0 9.0 0.00 0.43 0.17 64 1010.7
20260507110004 65 186 2.0 11.0 0.00 0.43 0.17 66 1010.9
20260507104600 66 86 5.0 11.0 0.00 0.46 0.17 63 1011.0
20260507103126 66 178 4.0 10.0 0.00 0.46 0.17 68 1011.0
20260507101629 65 133 7.0 12.0 0.00 0.46 0.17 67 1011.1
20260507100142 64 113 3.0 12.0 0.00 0.46 0.17 69 1011.1
20260507093125 63 92 5.0 8.0 0.00 0.47 0.17 73 1011.1
20260507091558 62 215 2.0 9.0 0.00 0.47 0.17 71 1011.0
20260507090132 60 134 2.0 9.0 0.00 0.47 0.17 76 1011.0
20260507084557 60 144 4.0 9.0 0.00 0.49 0.17 77 1011.0
20260507083130 59 171 4.0 9.0 0.00 0.49 0.17 78 1010.9
20260507081558 58 123 0.0 5.0 0.00 0.49 0.17 77 1010.9
20260507080138 58 140 3.0 9.0 0.00 0.49 0.17 78 1010.9
20260507074600 57 171 2.0 6.0 0.00 0.51 0.17 83 1010.9
20260507073143 56 126 1.0 6.0 0.00 0.51 0.17 87 1010.8
20260507071606 55 91 2.0 4.0 0.00 0.51 0.17 90 1010.8
20260507070119 54 102 2.0 3.0 0.00 0.51 0.17 90 1010.8
20260507064616 52 19 0.0 3.0 0.00 0.54 0.17 92 1010.7
20260507063058 51 19 1.0 3.0 0.00 0.54 0.17 93 1010.7
20260507061559 51 5 1.0 4.0 0.00 0.54 0.17 94 1010.6
20260507060143 51 12 2.0 3.0 0.00 0.54 0.17 95 1010.4
20260507054608 50 12 1.0 3.0 0.00 0.56 0.17 96 1010.4
20260507053118 50 5 1.0 3.0 0.00 0.56 0.17 97 1010.2
20260507051558 49 5 1.0 3.0 0.00 0.56 0.17 97 1010.1
20260507050133 48 350 0.0 2.0 0.00 0.56 0.17 96 1009.9
20260507044558 47 350 2.0 4.0 0.00 0.56 0.17 96 1009.8
20260507043129 47 333 2.0 3.0 0.00 0.56 0.17 95 1009.6
20260507041608 48 324 0.0 4.0 0.00 0.56 0.17 95 1009.3
20260507040136 48 317 2.0 4.0 0.03 0.56 0.17 95 1009.2
20260507034659 49 330 1.0 3.0 0.05 0.59 0.17 95 1009.1
20260507033123 49 5 0.0 2.0 0.06 0.59 0.17 96 1009.1
20260507031604 49 5 0.0 1.0 0.08 0.59 0.17 95 1009.1
20260507030138 50 5 0.0 2.0 0.06 0.56 0.14 95 1009.1
20260507024607 50 5 1.0 3.0 0.05 0.54 0.12 96 1009.1
20260507023122 51 5 1.0 4.0 0.05 0.54 0.11 96 1009.2
20260507021559 51 289 1.0 3.0 0.05 0.52 0.09 96 1009.1
20260507020002 51 290 0.0 2.0 0.05 0.51 0.09 96 1009.1
20260507014608 50 290 1.0 3.0 0.04 0.51 0.07 96 1009.2
20260507013136 50 313 0.0 2.0 0.04 0.50 0.06 96 1009.1
20260507011558 50 313 0.0 0.0 0.03 0.49 0.05 96 1009.1
20260507010127 50 329 0.0 2.0 0.02 0.48 0.04 96 1009.0
20260507004558 50 293 2.0 3.0 0.02 0.49 0.03 96 1008.9
20260507003121 49 57 0.0 3.0 0.02 0.48 0.02 95 1008.8
20260507001620 49 297 3.0 5.0 0.01 0.47 0.02 94 1008.5
20260506234558 50 328 1.0 3.0 0.02 0.48 0.02 92 1008.4
20260506233126 50 321 0.0 2.0 0.02 0.47 0.01 92 1008.4
20260506231558 51 318 1.0 4.0 0.02 0.47 0.01 92 1008.4
20260506230002 52 346 2.0 4.0 0.02 0.46 0.00 92 1008.4
20260506224557 52 321 2.0 3.0 0.01 0.46 0.46 93 1008.3
20260506223136 52 340 1.0 6.0 0.01 0.46 0.46 93 1008.4
20260506221603 52 300 1.0 3.0 0.01 0.46 0.46 92 1008.4
20260506220152 53 5 2.0 3.0 0.00 0.45 0.45 91 1008.4
20260506214609 53 5 0.0 2.0 0.00 0.45 0.45 92 1008.3
20260506213146 54 355 1.0 4.0 0.00 0.45 0.45 92 1008.4
20260506211559 54 275 0.0 3.0 0.00 0.45 0.45 91 1008.2
20260506210138 54 269 0.0 0.0 0.00 0.45 0.45 90 1008.2
20260506204558 54 268 2.0 3.0 0.00 0.45 0.45 89 1008.1
20260506201558 56 311 0.0 4.0 0.00 0.45 0.45 86 1007.6
20260506200152 57 290 1.0 3.0 0.00 0.45 0.45 83 1007.4
20260506194612 57 47 0.0 5.0 0.00 0.45 0.45 81 1007.1
20260506191600 56 38 2.0 5.0 0.00 0.45 0.45 84 1006.6
20260506190124 56 78 0.0 1.0 0.00 0.45 0.45 84 1006.3
20260506184557 57 78 0.0 2.0 0.00 0.45 0.45 81 1006.0
20260506183133 58 78 0.0 1.0 0.00 0.45 0.45 79 1005.7
20260506181557 59 78 3.0 7.0 0.00 0.45 0.45 76 1005.4
20260506180140 60 34 1.0 8.0 0.00 0.45 0.45 74 1005.2
20260506174601 62 115 3.0 12.0 0.00 0.45 0.45 71 1004.9
20260506173132 63 136 3.0 9.0 0.00 0.45 0.45 67 1004.5
20260506171602 64 116 3.0 8.0 0.00 0.45 0.45 66 1004.3
20260506170135 65 93 5.0 8.0 0.00 0.45 0.45 65 1004.0
20260506164559 66 121 2.0 6.0 0.00 0.45 0.45 67 1003.6
20260506163117 66 101 0.0 0.0 0.00 0.45 0.45 66 1003.6
20260506161600 64 45 0.0 4.0 0.00 0.45 0.45 68 1003.4
20260506160131 62 72 1.0 5.0 0.00 0.45 0.45 72 1003.4
20260506154559 62 5 2.0 8.0 0.02 0.45 0.45 71 1003.7
20260506153135 63 346 4.0 9.0 0.09 0.45 0.45 70 1003.8
20260506151558 62 360 6.0 10.0 0.11 0.45 0.45 76 1004.1
20260506150128 60 16 3.0 8.0 0.13 0.45 0.45 80 1004.0
20260506144601 61 5 3.0 6.0 0.11 0.43 0.43 79 1004.3
20260506143136 61 31 1.0 6.0 0.06 0.35 0.35 79 1004.1
20260506141558 62 355 3.0 6.0 0.05 0.34 0.34 77 1004.1
20260506140127 62 77 1.0 3.0 0.04 0.32 0.32 74 1004.4
20260506134618 62 79 0.0 5.0 0.04 0.31 0.31 75 1004.4
20260506133131 62 97 5.0 7.0 0.03 0.30 0.30 74 1004.4
20260506131610 62 90 2.0 7.0 0.03 0.28 0.28 76 1004.4
20260506130137 62 164 3.0 7.0 0.03 0.28 0.28 73 1004.4
20260506124600 63 219 3.0 5.0 0.03 0.28 0.28 72 1004.4
20260506123126 63 119 3.0 6.0 0.03 0.27 0.27 73 1004.3
20260506121607 62 71 1.0 6.0 0.03 0.26 0.26 74 1004.4